Location: ?????
(32.7281°N, 34.9563°E)
Time: 02:32:49
(UTC+00:00)

CZ-4B R/B - Pass Details

Date: 05 March 2021
Orbit: 388 x 454 km, 97.6° (Epoch: 18 April)

Event Time Altitude Azimuth Distance (km) Brightness Sun altitude
Rises 02:44:47 0° 153° (SSE) 2,351 5.4 -17.3°
Reaches altitude 10° 02:46:51 10° 145° (SE) 1,479 4.4 -16.9°
Maximum altitude 02:49:49 38° 75° (ENE) 642 2.8 -16.2°
Drops below altitude 10° 02:52:43 10° 6° (N) 1,457 4.1 -15.6°
Sets 02:54:45 0° 358° (N) 2,310 5.0 -15.2°
